Temp: 18.5°C   Baro: 1022.5mb
  Wind: 6.0mph   Dir: WNW (288°)
  Rain: 0.0mm (0.0mm/hr)
  Solar: 185W/m2  Hum: 58%
 
Bath Spa Weather Station Historical Data
Daily Summary for May 5, 2020 Units:  Metric    English   Both
Daily Weekly Monthly Yearly Custom
  High: Low: Average:
Temperature: 17.2 °C 13.3 °C 15.4 °C
Dew Point: 14.9 °C 9.4 °C 11.6 °C
Humidity: 93% 64.6% 78%
Wind Speed: 29.3km/h 7.1km/h 18km/h
Wind Gust: 53.1km/h - -
Wind- - West
Pressure: 1015.5 hPa 1008.4 hPa -
Precipitation: 2.03 mm    
Historical Graphs
 
 
Tabular Data for May 5, 2020
Time Temperature Dew Point Pressure Wind Wind Speed Wind Gust Humidity Rainfall Rate (Hourly) solar
00:04 16.4 °C 14.4 °C 1009.7 hPa WSW 15.1 km/h 27.4 km/h 88% 0 mm 0 W/m2
00:09 16.4 °C 14.4 °C 1009.7 hPa SW 17.7 km/h 25.7 km/h 88% 0 mm 0 W/m2
00:14 16.4 °C 14.4 °C 1009.7 hPa SW 13.2 km/h 22.5 km/h 88% 0 mm 0 W/m2
00:19 16.5 °C 14.5 °C 1009.7 hPa SW 21.4 km/h 35.4 km/h 88% 0 mm 0 W/m2
00:24 16.5 °C 14.5 °C 1009.7 hPa WSW 12.4 km/h 27.4 km/h 88% 0 mm 0 W/m2
00:29 16.6 °C 14.6 °C 1009.7 hPa WSW 10.6 km/h 24.1 km/h 88% 0 mm 0 W/m2
00:34 16.6 °C 14.6 °C 1009.4 hPa WSW 14.8 km/h 25.7 km/h 88% 0 mm 0 W/m2
00:39 16.6 °C 14.6 °C 1009.4 hPa SW 10.6 km/h 27.4 km/h 88% 0 mm 0 W/m2
00:44 16.7 °C 14.5 °C 1009 hPa SW 10.1 km/h 24.1 km/h 87.2% 0 mm 0 W/m2
00:49 16.7 °C 14.6 °C 1009 hPa WSW 15.3 km/h 24.1 km/h 87.5% 0 mm 0 W/m2
00:54 16.7 °C 14.7 °C 1009 hPa SW 15.4 km/h 22.5 km/h 87.8% 0 mm 0 W/m2
00:59 16.7 °C 14.7 °C 1009 hPa SW 12.2 km/h 27.4 km/h 88% 0 mm 0 W/m2
01:04 16.7 °C 14.7 °C 1009 hPa SW 19.3 km/h 33.8 km/h 88% 0 mm 0 W/m2
01:09 16.7 °C 14.7 °C 1009 hPa SW 11.6 km/h 27.4 km/h 88% 0 mm 0 W/m2
01:14 16.7 °C 14.7 °C 1009 hPa SW 14.8 km/h 32.2 km/h 88% 0 mm 0 W/m2
01:19 16.8 °C 14.8 °C 1009 hPa SW 18.2 km/h 30.6 km/h 88% 0 mm 0 W/m2
01:24 16.8 °C 14.8 °C 1009 hPa WSW 17.1 km/h 32.2 km/h 88% 0 mm 0 W/m2
01:29 16.8 °C 14.8 °C 1008.7 hPa WSW 11.9 km/h 25.7 km/h 88% 0 mm 0 W/m2
01:34 16.8 °C 14.8 °C 1008.7 hPa SW 17.4 km/h 25.7 km/h 88% 0 mm 0 W/m2
01:39 16.8 °C 14.8 °C 1008.7 hPa WSW 15 km/h 27.4 km/h 88% 0 mm 0 W/m2
01:44 16.7 °C 14.7 °C 1008.7 hPa WSW 16.9 km/h 25.7 km/h 88% 0 mm 0 W/m2
01:49 16.7 °C 14.8 °C 1008.7 hPa SW 16.1 km/h 29 km/h 88.8% 0 mm 0 W/m2
01:54 16.6 °C 14.7 °C 1008.7 hPa WSW 13.8 km/h 27.4 km/h 89% 0 mm 0 W/m2
01:59 16.4 °C 14.6 °C 1008.7 hPa WSW 9.5 km/h 22.5 km/h 89% 0 mm 0 W/m2
02:04 16.3 °C 14.7 °C 1008.7 hPa SW 12.9 km/h 22.5 km/h 90% 0 mm 0 W/m2
02:09 16.2 °C 14.6 °C 1008.7 hPa WSW 9.2 km/h 17.7 km/h 90% 0.25 mm 0 W/m2
02:14 16.1 °C 14.6 °C 1008.7 hPa WSW 12.6 km/h 22.5 km/h 90.8% 0.51 mm 0 W/m2
02:19 15.9 °C 14.4 °C 1008.7 hPa SW 8 km/h 17.7 km/h 91% 0.51 mm 0 W/m2
02:24 15.9 °C 14.4 °C 1008.7 hPa SW 10.3 km/h 20.9 km/h 91% 0.51 mm 0 W/m2
02:29 15.9 °C 14.6 °C 1008.7 hPa WSW 7.1 km/h 20.9 km/h 91.8% 0.51 mm 0 W/m2
02:34 15.9 °C 14.7 °C 1008.7 hPa SW 9.3 km/h 20.9 km/h 92% 0.51 mm 0 W/m2
02:39 16 °C 14.7 °C 1008.7 hPa SW 9.3 km/h 20.9 km/h 92% 0.51 mm 0 W/m2
02:44 16.1 °C 14.8 °C 1008.4 hPa WSW 15.8 km/h 24.1 km/h 92% 0.51 mm 0 W/m2
02:49 16.1 °C 14.8 °C 1008.4 hPa SW 10.9 km/h 20.9 km/h 92% 0.51 mm 0 W/m2
02:54 16.1 °C 14.8 °C 1008.4 hPa WNW 11.3 km/h 24.1 km/h 92% 0.51 mm 0 W/m2
02:59 16.1 °C 14.9 °C 1008.4 hPa WSW 14.5 km/h 24.1 km/h 92.6% 0.51 mm 0 W/m2
03:04 16.1 °C 14.8 °C 1008.4 hPa West 12.2 km/h 29 km/h 92.4% 0.51 mm 0 W/m2
03:09 16.1 °C 14.8 °C 1008.4 hPa West 15.8 km/h 24.1 km/h 92% 0.51 mm 0 W/m2
03:14 16.1 °C 14.8 °C 1008.4 hPa West 10.1 km/h 20.9 km/h 92% 0.51 mm 0 W/m2
03:19 16.1 °C 14.8 °C 1008.4 hPa WSW 13.5 km/h 29 km/h 92% 0.51 mm 0 W/m2
03:24 16.2 °C 14.9 °C 1008.4 hPa West 14.2 km/h 29 km/h 92% 0.25 mm 0 W/m2
03:29 16.2 °C 14.9 °C 1008.4 hPa WSW 11.1 km/h 22.5 km/h 92% 0.25 mm 0 W/m2
03:34 16.2 °C 14.8 °C 1008.4 hPa West 12.2 km/h 22.5 km/h 91.2% 0.25 mm 0 W/m2
03:39 16.2 °C 14.7 °C 1008.4 hPa West 15.4 km/h 24.1 km/h 91% 0.25 mm 0 W/m2
03:44 16.2 °C 14.7 °C 1008.4 hPa West 12.9 km/h 22.5 km/h 91% 0.25 mm 0 W/m2
03:49 16.2 °C 14.7 °C 1008.4 hPa WSW 14.2 km/h 24.1 km/h 91% 0.25 mm 0 W/m2
03:54 16.2 °C 14.7 °C 1008.4 hPa West 17.1 km/h 29 km/h 91% 0.25 mm 0 W/m2
03:59 16.2 °C 14.7 °C 1008.4 hPa West 15.4 km/h 25.7 km/h 91% 0.25 mm 0 W/m2
04:04 16.1 °C 14.6 °C 1008.4 hPa West 12.1 km/h 27.4 km/h 91% 0.25 mm 0 W/m2
04:09 16.1 °C 14.6 °C 1008.4 hPa West 13.2 km/h 24.1 km/h 91% 0.25 mm 0 W/m2
04:13 16 °C 14.5 °C 1008.4 hPa West 14.2 km/h 24.1 km/h 91% 0.25 mm 0 W/m2
04:19 15.9 °C 14.5 °C 1008.4 hPa West 9 km/h 22.5 km/h 91.4% 0.25 mm 0 W/m2
04:29 15.9 °C 14.6 °C 1008.4 hPa West 8.5 km/h 20.9 km/h 92% 0 mm 0 W/m2
04:34 15.8 °C 14.6 °C 1008.4 hPa WNW 11.3 km/h 20.9 km/h 92% 0 mm 0 W/m2
04:39 15.8 °C 14.5 °C 1008.4 hPa WNW 7.4 km/h 16.1 km/h 92% 0.25 mm 0 W/m2
04:44 15.8 °C 14.5 °C 1008.4 hPa West 9 km/h 16.1 km/h 92% 0.51 mm 0 W/m2
04:49 15.7 °C 14.5 °C 1008.4 hPa WNW 10.9 km/h 17.7 km/h 92.6% 0.51 mm 0 W/m2
04:54 15.6 °C 14.5 °C 1008.4 hPa WNW 11.6 km/h 16.1 km/h 93% 1.02 mm 0 W/m2
04:59 15.6 °C 14.5 °C 1008.4 hPa WNW 21.2 km/h 32.2 km/h 93% 1.02 mm 0 W/m2
05:04 15.5 °C 14.4 °C 1008.4 hPa WNW 17.4 km/h 32.2 km/h 93% 1.02 mm 0 W/m2
05:09 15.4 °C 14.3 °C 1008.4 hPa WNW 17.1 km/h 29 km/h 93% 1.02 mm 0 W/m2
05:14 15.3 °C 14.2 °C 1008.7 hPa WNW 18.3 km/h 33.8 km/h 93% 1.02 mm 5 W/m2
05:19 15.3 °C 14.2 °C 1008.7 hPa West 14.2 km/h 33.8 km/h 93% 1.02 mm 11 W/m2
05:24 15.3 °C 14.2 °C 1008.4 hPa West 18.7 km/h 32.2 km/h 93% 1.27 mm 11 W/m2
05:29 15.3 °C 14.2 °C 1008.4 hPa WSW 19.6 km/h 30.6 km/h 93% 1.27 mm 12 W/m2
05:39 15.4 °C 14.2 °C 1008.7 hPa West 20.1 km/h 45.1 km/h 92% 1.02 mm 16 W/m2
05:44 15.4 °C 13.9 °C 1008.7 hPa West 22.7 km/h 38.6 km/h 91% 1.02 mm 23 W/m2
05:49 15.4 °C 13.9 °C 1008.7 hPa West 17.7 km/h 33.8 km/h 91% 0.76 mm 19 W/m2
05:54 15.4 °C 13.8 °C 1008.7 hPa West 23.2 km/h 38.6 km/h 90.6% 0.51 mm 19 W/m2
05:59 15.3 °C 13.7 °C 1008.7 hPa West 12.9 km/h 37 km/h 90% 0.25 mm 25 W/m2
06:04 15.2 °C 13.7 °C 1009 hPa NW 24.5 km/h 46.7 km/h 90.2% 0.25 mm 40 W/m2
06:09 14.8 °C 13.3 °C 1009 hPa West 22.5 km/h 46.7 km/h 90.8% 0.25 mm 28 W/m2
06:14 14.7 °C 13.2 °C 1009 hPa WNW 18.7 km/h 46.7 km/h 91% 0.25 mm 40 W/m2
06:19 14.6 °C 13.1 °C 1009 hPa WNW 20 km/h 38.6 km/h 91% 0.25 mm 28 W/m2
06:24 14.6 °C 13.1 °C 1009 hPa WNW 23.8 km/h 41.8 km/h 91% 0 mm 35 W/m2
06:29 14.6 °C 13.1 °C 1009 hPa WNW 18.5 km/h 37 km/h 91% 0 mm 35 W/m2
06:34 14.6 °C 12.9 °C 1009.4 hPa WNW 20.6 km/h 41.8 km/h 90.5% 0 mm 54 W/m2
06:39 14.5 °C 12.9 °C 1009.4 hPa WNW 23.3 km/h 33.8 km/h 90% 0 mm 72 W/m2
06:44 14.6 °C 12.8 °C 1009.4 hPa West 18.3 km/h 37 km/h 89.4% 0 mm 69 W/m2
06:49 14.5 °C 12.7 °C 1009.4 hPa WNW 18.2 km/h 33.8 km/h 88.6% 0 mm 69 W/m2
06:54 14.5 °C 12.5 °C 1009.7 hPa WNW 12.9 km/h 25.7 km/h 88% 0 mm 76 W/m2
06:59 14.4 °C 12.4 °C 1009.7 hPa West 13.2 km/h 37 km/h 87.8% 0 mm 88 W/m2
07:04 14.4 °C 12.3 °C 1009.7 hPa West 13.2 km/h 37 km/h 87% 0 mm 81 W/m2
07:09 14.4 °C 12.3 °C 1009.7 hPa WNW 14.5 km/h 38.6 km/h 87% 0 mm 116 W/m2
07:19 14.6 °C 12.3 °C 1009.7 hPa WNW 16.6 km/h 35.4 km/h 86% 0 mm 97 W/m2
07:24 14.6 °C 12.3 °C 1009.7 hPa WNW 17.1 km/h 41.8 km/h 86% 0 mm 102 W/m2
07:29 14.7 °C 12.3 °C 1009.7 hPa West 12.9 km/h 37 km/h 86% 0 mm 105 W/m2
07:34 14.7 °C 12.3 °C 1010 hPa West 14.2 km/h 35.4 km/h 86% 0 mm 137 W/m2
07:44 14.7 °C 12.3 °C 1010 hPa WNW 13.5 km/h 33.8 km/h 85.4% 0 mm 156 W/m2
07:49 14.7 °C 12.3 °C 1010 hPa West 19.3 km/h 33.8 km/h 85.4% 0 mm 134 W/m2
07:54 14.7 °C 12.2 °C 1010 hPa West 21.2 km/h 33.8 km/h 85% 0 mm 176 W/m2
07:59 14.8 °C 12.3 °C 1010 hPa WNW 16.4 km/h 32.2 km/h 85% 0 mm 411 W/m2
08:04 15 °C 12.3 °C 1010 hPa West 16.7 km/h 32.2 km/h 84.4% 0 mm 230 W/m2
08:09 14.9 °C 12.2 °C 1010 hPa West 18.7 km/h 43.5 km/h 84% 0 mm 190 W/m2
08:14 15.1 °C 12.4 °C 1010 hPa West 18.3 km/h 32.2 km/h 84% 0 mm 464 W/m2
08:19 15.2 °C 12.5 °C 1010 hPa WNW 19 km/h 29 km/h 84% 0 mm 248 W/m2
08:24 15.1 °C 12.2 °C 1010 hPa WNW 17.7 km/h 30.6 km/h 83% 0 mm 172 W/m2
08:29 14.9 °C 12.1 °C 1010.4 hPa West 22.5 km/h 41.8 km/h 83.4% 0 mm 220 W/m2
08:34 15 °C 12 °C 1010.4 hPa WNW 19.3 km/h 41.8 km/h 82.4% 0 mm 199 W/m2
08:39 14.9 °C 12 °C 1010.4 hPa WNW 18.3 km/h 43.5 km/h 82.8% 0 mm 246 W/m2
08:44 15.1 °C 12 °C 1010.4 hPa WNW 21.4 km/h 43.5 km/h 82% 0 mm 269 W/m2
08:49 15.1 °C 12 °C 1010.4 hPa WNW 17.4 km/h 33.8 km/h 82% 0 mm 156 W/m2
08:54 15 °C 12 °C 1010.7 hPa West 17.1 km/h 33.8 km/h 82% 0 mm 200 W/m2
08:59 14.8 °C 11.8 °C 1010.7 hPa West 18.3 km/h 32.2 km/h 81.6% 0 mm 169 W/m2
09:04 14.9 °C 11.6 °C 1010.7 hPa West 21.2 km/h 35.4 km/h 80.6% 0 mm 603 W/m2
09:09 15.2 °C 11.6 °C 1010.7 hPa West 25.7 km/h 41.8 km/h 78.8% 0 mm 626 W/m2
09:14 15.3 °C 11.3 °C 1011.1 hPa NW 18 km/h 40.2 km/h 77% 0 mm 216 W/m2
09:19 15.2 °C 11 °C 1010.7 hPa West 16.4 km/h 46.7 km/h 76% 0 mm 253 W/m2
09:24 15.3 °C 11.1 °C 1010.7 hPa WNW 19.3 km/h 32.2 km/h 76% 0 mm 290 W/m2
09:29 15.2 °C 11.2 °C 1011.1 hPa WNW 16.1 km/h 38.6 km/h 76.6% 0 mm 179 W/m2
09:34 15.2 °C 11.3 °C 1011.1 hPa NW 19 km/h 38.6 km/h 77.6% 0 mm 227 W/m2
09:39 15.2 °C 10.7 °C 1011.4 hPa West 20 km/h 40.2 km/h 74.4% 0 mm 640 W/m2
09:44 15.5 °C 10.6 °C 1011.1 hPa NW 19.2 km/h 33.8 km/h 72.6% 0 mm 605 W/m2
09:49 15.8 °C 10.7 °C 1011.1 hPa WNW 19.3 km/h 37 km/h 71.4% 0 mm 605 W/m2
09:54 15.6 °C 10.6 °C 1011.4 hPa WNW 13.2 km/h 27.4 km/h 72% 0 mm 250 W/m2
09:59 15.5 °C 10.3 °C 1011.4 hPa WNW 16.4 km/h 29 km/h 71.2% 0 mm 315 W/m2
10:04 15.5 °C 10.3 °C 1011.4 hPa West 20.3 km/h 27.4 km/h 71% 0 mm 276 W/m2
10:09 15.4 °C 10.3 °C 1011.4 hPa WNW 18.8 km/h 40.2 km/h 71.4% 0 mm 202 W/m2
10:14 15.3 °C 10.5 °C 1011.4 hPa WNW 15.8 km/h 40.2 km/h 72.8% 0 mm 297 W/m2
10:19 15.4 °C 10.6 °C 1011.4 hPa WNW 20 km/h 33.8 km/h 73% 0 mm 749 W/m2
10:24 15.8 °C 10.8 °C 1011.4 hPa West 17.7 km/h 33.8 km/h 72% 0 mm 823 W/m2
10:29 16.2 °C 10.8 °C 1011.4 hPa West 19 km/h 30.6 km/h 70.6% 0 mm 823 W/m2
10:34 16.2 °C 10.2 °C 1011.7 hPa WNW 20.1 km/h 30.6 km/h 68% 0 mm 810 W/m2
10:39 16.2 °C 10.4 °C 1011.7 hPa WNW 17.1 km/h 29 km/h 68.6% 0 mm 309 W/m2
10:44 16.1 °C 10.2 °C 1011.7 hPa West 20 km/h 38.6 km/h 68.4% 0 mm 445 W/m2
10:49 15.7 °C 9.9 °C 1011.7 hPa WNW 22.7 km/h 38.6 km/h 68.8% 0 mm 756 W/m2
10:54 15.8 °C 9.9 °C 1011.7 hPa West 18.3 km/h 41.8 km/h 67.6% 0 mm 810 W/m2
10:59 16.2 °C 10.1 °C 1011.7 hPa WNW 17.7 km/h 41.8 km/h 67.4% 0 mm 1016 W/m2
11:04 15.9 °C 10.3 °C 1011.7 hPa WNW 17.4 km/h 40.2 km/h 69.4% 0 mm 236 W/m2
11:09 15.3 °C 10.1 °C 1011.7 hPa WNW 23.2 km/h 33.8 km/h 70.4% 0 mm 251 W/m2
11:14 15.4 °C 10.1 °C 1011.7 hPa WNW 18 km/h 38.6 km/h 70.4% 0 mm 216 W/m2
11:19 15.8 °C 10.4 °C 1011.7 hPa West 17.4 km/h 32.2 km/h 70.2% 0 mm 1000 W/m2
11:24 15.9 °C 10.4 °C 1011.7 hPa WNW 20.3 km/h 37 km/h 69.8% 0 mm 1000 W/m2
11:29 15.7 °C 10.5 °C 1011.7 hPa WNW 26.1 km/h 33.8 km/h 71.2% 0 mm 281 W/m2
11:34 15.6 °C 10.7 °C 1012.1 hPa WNW 17.2 km/h 38.6 km/h 72.4% 0 mm 330 W/m2
11:39 15.7 °C 10.8 °C 1012.1 hPa WNW 19.8 km/h 38.6 km/h 72.8% 0 mm 954 W/m2
11:44 15.9 °C 10.9 °C 1012.1 hPa West 23.2 km/h 41.8 km/h 72% 0 mm 1053 W/m2
11:49 16.3 °C 10.9 °C 1012.1 hPa WNW 27.5 km/h 43.5 km/h 70.8% 0 mm 1065 W/m2
11:54 16.4 °C 11.1 °C 1012.1 hPa West 25.4 km/h 37 km/h 71% 0 mm 380 W/m2
11:59 16.1 °C 10.6 °C 1012.1 hPa West 20.6 km/h 41.8 km/h 70.2% 0 mm 318 W/m2
12:04 16.2 °C 10.4 °C 1012.4 hPa WSW 23.5 km/h 49.9 km/h 68.6% 0 mm 436 W/m2
12:09 16.1 °C 10.3 °C 1012.4 hPa West 10.8 km/h 30.6 km/h 68.6% 0 mm 846 W/m2
12:14 16.1 °C 10.4 °C 1012.4 hPa WNW 22 km/h 43.5 km/h 69.2% 0 mm 334 W/m2
12:19 15.7 °C 10.6 °C 1012.4 hPa West 20.9 km/h 38.6 km/h 71.4% 0 mm 462 W/m2
12:24 15.6 °C 10.6 °C 1012.4 hPa West 23.8 km/h 35.4 km/h 71.8% 0 mm 316 W/m2
12:29 15.6 °C 10.5 °C 1012.4 hPa WNW 19.3 km/h 37 km/h 71.6% 0 mm 267 W/m2
12:34 16 °C 10.6 °C 1012.4 hPa West 24.5 km/h 46.7 km/h 70% 0 mm 563 W/m2
12:39 16.1 °C 10.4 °C 1012.8 hPa WNW 19.3 km/h 46.7 km/h 69% 0 mm 322 W/m2
12:44 15.9 °C 10.4 °C 1012.8 hPa WNW 25.4 km/h 45.1 km/h 70% 0 mm 318 W/m2
12:49 15.7 °C 10.2 °C 1012.8 hPa WNW 20.3 km/h 45.1 km/h 70% 0 mm 427 W/m2
12:54 15.8 °C 10.3 °C 1012.8 hPa West 19.5 km/h 38.6 km/h 70.2% 0 mm 362 W/m2
12:59 15.9 °C 10.6 °C 1012.8 hPa West 20.3 km/h 43.5 km/h 70.8% 0 mm 427 W/m2
13:04 15.8 °C 10.4 °C 1012.8 hPa West 17.1 km/h 35.4 km/h 70.4% 0 mm 376 W/m2
13:09 15.9 °C 10.2 °C 1012.8 hPa WNW 20.9 km/h 40.2 km/h 68.8% 0 mm 434 W/m2
13:14 16.2 °C 10.5 °C 1012.8 hPa WNW 24.1 km/h 38.6 km/h 69% 0 mm 422 W/m2
13:19 16.1 °C 10.3 °C 1012.8 hPa WNW 20.6 km/h 35.4 km/h 68.8% 0 mm 390 W/m2
13:24 15.9 °C 10.2 °C 1012.8 hPa West 29.3 km/h 43.5 km/h 68.6% 0 mm 439 W/m2
13:29 15.8 °C 10.1 °C 1012.8 hPa WNW 22.7 km/h 41.8 km/h 69.2% 0 mm 418 W/m2
13:34 15.9 °C 10.3 °C 1012.8 hPa West 22.2 km/h 40.2 km/h 69.6% 0 mm 1090 W/m2
13:39 16 °C 10.5 °C 1012.8 hPa WNW 23.8 km/h 37 km/h 69.8% 0 mm 381 W/m2
13:44 15.8 °C 10.3 °C 1013.1 hPa West 20.9 km/h 40.2 km/h 70% 0 mm 348 W/m2
13:49 15.7 °C 10.5 °C 1013.1 hPa West 20.1 km/h 33.8 km/h 71% 0 mm 316 W/m2
13:54 15.8 °C 10.4 °C 1013.1 hPa WNW 25.1 km/h 38.6 km/h 70.3% 0 mm 359 W/m2
13:59 15.8 °C 10.3 °C 1013.1 hPa West 24.8 km/h 41.8 km/h 70% 0 mm 439 W/m2
14:04 16.1 °C 10.6 °C 1013.1 hPa West 24.8 km/h 43.5 km/h 69.8% 0 mm 1137 W/m2
14:09 16.5 °C 10.7 °C 1012.8 hPa WNW 19.3 km/h 35.4 km/h 68.8% 0 mm 1137 W/m2
14:14 16.3 °C 10.6 °C 1013.1 hPa WNW 22.5 km/h 45.1 km/h 69% 0 mm 390 W/m2
14:19 16.2 °C 10.6 °C 1012.8 hPa WNW 20.3 km/h 41.8 km/h 69.4% 0 mm 330 W/m2
14:24 16.9 °C 11.3 °C 1013.1 hPa West 11.9 km/h 38.6 km/h 69.2% 0 mm 1079 W/m2
14:29 17.1 °C 10.8 °C 1013.1 hPa West 23.5 km/h 41.8 km/h 66.6% 0 mm 434 W/m2
14:34 16.3 °C 10.7 °C 1013.1 hPa West 25.1 km/h 43.5 km/h 69% 0 mm 545 W/m2
14:39 16.1 °C 10.7 °C 1013.1 hPa WNW 19.6 km/h 48.3 km/h 70.4% 0 mm 1005 W/m2
14:44 16.7 °C 11.1 °C 1013.1 hPa West 18 km/h 43.5 km/h 69.2% 0 mm 1125 W/m2
14:49 16.4 °C 10.6 °C 1013.1 hPa West 26.1 km/h 43.5 km/h 68.2% 0 mm 404 W/m2
14:54 16.7 °C 10.6 °C 1013.1 hPa WNW 19 km/h 37 km/h 67.5% 0 mm 891 W/m2
14:59 16.9 °C 10.2 °C 1013.1 hPa WSW 24.8 km/h 41.8 km/h 64.6% 0 mm 891 W/m2
15:04 16.7 °C 10.2 °C 1013.1 hPa West 27.4 km/h 41.8 km/h 65.6% 0 mm 991 W/m2
15:09 16.7 °C 10.2 °C 1013.1 hPa WNW 22.9 km/h 46.7 km/h 65.4% 0 mm 991 W/m2
15:14 16.8 °C 10.4 °C 1013.1 hPa WNW 22.9 km/h 46.7 km/h 66% 0 mm 969 W/m2
15:19 16.9 °C 10.5 °C 1013.1 hPa West 27.7 km/h 49.9 km/h 66% 0 mm 946 W/m2
15:24 17.2 °C 10.9 °C 1013.1 hPa WNW 24.8 km/h 49.9 km/h 67% 0 mm 926 W/m2
15:29 17.2 °C 11.1 °C 1013.1 hPa West 15.8 km/h 35.4 km/h 67.6% 0 mm 933 W/m2
15:34 17 °C 10.8 °C 1013.4 hPa West 23.8 km/h 45.1 km/h 66.8% 0 mm 396 W/m2
15:39 16.7 °C 10.6 °C 1013.4 hPa West 22.4 km/h 45.1 km/h 67.4% 0 mm 946 W/m2
15:44 16.8 °C 10.5 °C 1013.4 hPa WNW 23.5 km/h 51.5 km/h 66.4% 0 mm 870 W/m2
15:49 16.7 °C 10.3 °C 1013.4 hPa NW 22.5 km/h 51.5 km/h 66.2% 0 mm 315 W/m2
15:54 16.5 °C 10.2 °C 1013.4 hPa WNW 22.9 km/h 45.1 km/h 66.2% 0 mm 299 W/m2
15:59 16.2 °C 10.3 °C 1013.4 hPa West 19.3 km/h 43.5 km/h 67.6% 0 mm 218 W/m2
16:04 16 °C 10.3 °C 1013.8 hPa West 17.1 km/h 38.6 km/h 69% 0 mm 239 W/m2
16:09 15.6 °C 10.3 °C 1013.4 hPa WNW 20.9 km/h 43.5 km/h 70.6% 0 mm 731 W/m2
16:14 15.9 °C 10.7 °C 1013.4 hPa WNW 18.8 km/h 32.2 km/h 71% 0 mm 330 W/m2
16:19 15.9 °C 10.3 °C 1013.8 hPa West 24.1 km/h 38.6 km/h 69.8% 0 mm 279 W/m2
16:24 16 °C 10.3 °C 1013.8 hPa West 16.9 km/h 40.2 km/h 69.2% 0 mm 410 W/m2
16:29 16.1 °C 10.4 °C 1013.4 hPa WNW 24.6 km/h 45.1 km/h 69% 0 mm 318 W/m2
16:34 16.4 °C 10.6 °C 1013.4 hPa West 22.2 km/h 37 km/h 68.4% 0 mm 745 W/m2
16:39 16.6 °C 10.4 °C 1013.4 hPa West 25.4 km/h 40.2 km/h 67.2% 0 mm 745 W/m2
16:44 16.6 °C 10.7 °C 1013.8 hPa WNW 23.8 km/h 48.3 km/h 68% 0 mm 823 W/m2
16:49 16.6 °C 10.4 °C 1013.8 hPa West 25.1 km/h 49.9 km/h 67% 0 mm 784 W/m2
16:54 16.6 °C 10.5 °C 1013.4 hPa WNW 29.3 km/h 45.1 km/h 67.4% 0 mm 744 W/m2
16:59 16.3 °C 10.4 °C 1013.4 hPa West 25.1 km/h 43.5 km/h 68.1% 0 mm 744 W/m2
17:04 16.6 °C 10.7 °C 1013.4 hPa WNW 26.4 km/h 38.6 km/h 68.4% 0 mm 647 W/m2
17:09 16.6 °C 10.7 °C 1013.4 hPa WNW 18.5 km/h 40.2 km/h 68.2% 0 mm 664 W/m2
17:14 16.7 °C 10.6 °C 1013.4 hPa West 19 km/h 37 km/h 67% 0 mm 682 W/m2
17:19 16.7 °C 10.6 °C 1013.4 hPa West 19 km/h 41.8 km/h 67.4% 0 mm 617 W/m2
17:24 16.6 °C 10.2 °C 1013.4 hPa WNW 21.9 km/h 43.5 km/h 65.8% 0 mm 605 W/m2
17:29 16.3 °C 10.2 °C 1013.4 hPa West 22.5 km/h 46.7 km/h 67% 0 mm 612 W/m2
17:34 16.1 °C 10.2 °C 1013.4 hPa WNW 26.7 km/h 53.1 km/h 67.6% 0 mm 584 W/m2
17:39 15.8 °C 10 °C 1013.4 hPa West 18.3 km/h 40.2 km/h 68.2% 0 mm 253 W/m2
17:44 15.7 °C 10.3 °C 1013.4 hPa WNW 15.1 km/h 48.3 km/h 70.4% 0 mm 531 W/m2
17:49 15.8 °C 10.6 °C 1013.4 hPa WNW 17.9 km/h 43.5 km/h 71% 0 mm 531 W/m2
17:54 15.8 °C 10.6 °C 1013.4 hPa WNW 26.7 km/h 43.5 km/h 71% 0 mm 570 W/m2
17:59 15.7 °C 10.6 °C 1013.4 hPa WNW 19 km/h 37 km/h 71.6% 0 mm 160 W/m2
18:04 15.4 °C 10.4 °C 1013.4 hPa WNW 20 km/h 46.7 km/h 72% 0 mm 128 W/m2
18:09 15.3 °C 10.5 °C 1013.4 hPa West 23.5 km/h 43.5 km/h 73% 0 mm 199 W/m2
18:14 15.3 °C 10.3 °C 1013.4 hPa West 25.7 km/h 45.1 km/h 72.4% 0 mm 490 W/m2
18:18 15.6 °C 10.6 °C 1013.4 hPa West 18.2 km/h 41.8 km/h 72% 0 mm 385 W/m2
18:24 15.5 °C 10.4 °C 1013.8 hPa WNW 23.2 km/h 51.5 km/h 71.8% 0 mm 385 W/m2
18:29 15.5 °C 10.5 °C 1013.4 hPa WNW 21.2 km/h 40.2 km/h 72% 0 mm 272 W/m2
18:34 15.5 °C 10.5 °C 1013.4 hPa West 16.3 km/h 32.2 km/h 72% 0 mm 142 W/m2
18:39 15.7 °C 10.7 °C 1013.4 hPa WNW 15.1 km/h 37 km/h 72% 0 mm 496 W/m2
18:44 15.7 °C 10.6 °C 1013.4 hPa WNW 16.7 km/h 35.4 km/h 71.4% 0 mm 250 W/m2
18:49 15.5 °C 10.4 °C 1013.4 hPa West 17.7 km/h 33.8 km/h 71.8% 0 mm 176 W/m2
18:54 15.3 °C 10.3 °C 1013.8 hPa West 27 km/h 46.7 km/h 72.2% 0 mm 183 W/m2
18:59 15.2 °C 10.4 °C 1013.8 hPa West 22.2 km/h 41.8 km/h 73% 0 mm 322 W/m2
19:04 14.9 °C 10.2 °C 1013.8 hPa West 14.3 km/h 38.6 km/h 73.2% 0 mm 156 W/m2
19:09 14.8 °C 10.3 °C 1013.8 hPa WNW 22 km/h 40.2 km/h 74% 0 mm 127 W/m2
19:14 14.8 °C 10.2 °C 1013.8 hPa West 23.5 km/h 49.9 km/h 74% 0 mm 313 W/m2
19:19 14.9 °C 10.3 °C 1013.8 hPa NW 25.1 km/h 49.9 km/h 74% 0 mm 309 W/m2
19:24 14.9 °C 10.2 °C 1014.1 hPa NW 23.2 km/h 45.1 km/h 73.4% 0 mm 243 W/m2
19:29 14.8 °C 10.2 °C 1013.8 hPa WNW 29.3 km/h 48.3 km/h 74% 0 mm 232 W/m2
19:34 14.8 °C 10.3 °C 1013.8 hPa WNW 21.4 km/h 33.8 km/h 74.6% 0 mm 241 W/m2
19:39 14.9 °C 10.5 °C 1013.8 hPa WNW 18.7 km/h 33.8 km/h 75% 0 mm 214 W/m2
19:44 14.8 °C 10.4 °C 1014.1 hPa WNW 22.7 km/h 41.8 km/h 75% 0 mm 176 W/m2
19:49 14.7 °C 10.3 °C 1014.1 hPa WNW 28 km/h 43.5 km/h 75% 0 mm 155 W/m2
19:54 14.7 °C 10.2 °C 1014.1 hPa WNW 22.7 km/h 40.2 km/h 75% 0 mm 167 W/m2
19:59 14.6 °C 10.2 °C 1014.1 hPa West 21.6 km/h 33.8 km/h 75% 0 mm 102 W/m2
20:04 14.5 °C 10.1 °C 1014.1 hPa WNW 15 km/h 37 km/h 75% 0 mm 111 W/m2
20:09 14.6 °C 10.3 °C 1013.8 hPa WNW 17.1 km/h 37 km/h 75.6% 0 mm 144 W/m2
20:14 14.6 °C 10.2 °C 1013.8 hPa WNW 18.2 km/h 37 km/h 75% 0 mm 137 W/m2
20:19 14.4 °C 10.2 °C 1014.1 hPa West 16.4 km/h 32.2 km/h 76% 0 mm 76 W/m2
20:24 14.3 °C 10.1 °C 1014.1 hPa WNW 20.8 km/h 40.2 km/h 75.6% 0 mm 74 W/m2
20:29 14.3 °C 9.9 °C 1014.1 hPa WNW 19.6 km/h 40.2 km/h 75% 0 mm 74 W/m2
20:34 14.3 °C 10 °C 1014.1 hPa WNW 13.5 km/h 40.2 km/h 75.6% 0 mm 67 W/m2
20:39 14.2 °C 10.1 °C 1014.1 hPa WNW 16.4 km/h 33.8 km/h 76% 0 mm 44 W/m2
20:43 14.2 °C 10 °C 1014.4 hPa West 23 km/h 38.6 km/h 76% 0 mm 32 W/m2
20:49 14.1 °C 9.9 °C 1014.4 hPa West 24.1 km/h 37 km/h 76% 0 mm 35 W/m2
20:54 14.1 °C 9.8 °C 1014.4 hPa WNW 18.3 km/h 30.6 km/h 76% 0 mm 28 W/m2
20:59 13.9 °C 9.8 °C 1014.4 hPa NW 18.2 km/h 35.4 km/h 76% 0 mm 23 W/m2
21:04 13.9 °C 9.7 °C 1014.4 hPa WNW 16.7 km/h 32.2 km/h 76% 0 mm 23 W/m2
21:09 13.9 °C 9.7 °C 1014.4 hPa WNW 17.4 km/h 40.2 km/h 76% 0 mm 11 W/m2
21:14 13.9 °C 9.7 °C 1014.4 hPa WNW 16.7 km/h 37 km/h 76% 0 mm 11 W/m2
21:19 13.8 °C 9.7 °C 1014.4 hPa West 20.6 km/h 37 km/h 76% 0 mm 7 W/m2
21:24 13.8 °C 9.6 °C 1014.4 hPa WNW 12.2 km/h 24.1 km/h 76% 0 mm 5 W/m2
21:29 13.8 °C 9.7 °C 1014.4 hPa West 13.2 km/h 32.2 km/h 76.8% 0 mm 0 W/m2
21:34 13.7 °C 9.7 °C 1014.4 hPa West 18.5 km/h 32.2 km/h 77% 0 mm 0 W/m2
21:39 13.7 °C 9.7 °C 1014.8 hPa WNW 17.2 km/h 25.7 km/h 77% 0 mm 0 W/m2
21:44 13.7 °C 9.7 °C 1014.8 hPa WNW 14.8 km/h 27.4 km/h 77% 0 mm 0 W/m2
21:49 13.7 °C 9.7 °C 1015.1 hPa WNW 12.6 km/h 29 km/h 77% 0 mm 0 W/m2
21:54 13.7 °C 9.7 °C 1015.1 hPa West 13.7 km/h 24.1 km/h 77% 0 mm 0 W/m2
21:59 13.6 °C 9.6 °C 1014.8 hPa WNW 14.2 km/h 24.1 km/h 77% 0 mm 0 W/m2
22:04 13.6 °C 9.6 °C 1014.8 hPa West 14.5 km/h 27.4 km/h 77% 0 mm 0 W/m2
22:09 13.6 °C 9.6 °C 1014.8 hPa WNW 14.2 km/h 22.5 km/h 77% 0 mm 0 W/m2
22:14 13.5 °C 9.6 °C 1014.8 hPa WNW 14.8 km/h 27.4 km/h 77.4% 0 mm 0 W/m2
22:19 13.4 °C 9.7 °C 1014.8 hPa WNW 11.7 km/h 24.1 km/h 78% 0 mm 0 W/m2
22:24 13.4 °C 9.7 °C 1014.8 hPa West 18 km/h 27.4 km/h 78% 0 mm 0 W/m2
22:29 13.4 °C 9.6 °C 1014.8 hPa WNW 11.4 km/h 30.6 km/h 78% 0 mm 0 W/m2
22:34 13.4 °C 9.8 °C 1014.8 hPa WNW 12.1 km/h 30.6 km/h 79% 0 mm 0 W/m2
22:39 13.4 °C 9.8 °C 1014.8 hPa West 10.1 km/h 27.4 km/h 79% 0 mm 0 W/m2
22:44 13.4 °C 9.8 °C 1014.8 hPa WNW 13.5 km/h 30.6 km/h 79% 0 mm 0 W/m2
22:49 13.4 °C 9.8 °C 1014.8 hPa West 12.4 km/h 30.6 km/h 79% 0 mm 0 W/m2
22:54 13.4 °C 9.8 °C 1014.8 hPa WNW 13.5 km/h 35.4 km/h 79% 0 mm 0 W/m2
22:59 13.5 °C 9.8 °C 1015.1 hPa WNW 18.3 km/h 30.6 km/h 78.4% 0 mm 0 W/m2
23:04 13.5 °C 9.7 °C 1015.1 hPa West 19 km/h 30.6 km/h 78% 0 mm 0 W/m2
23:09 13.5 °C 9.6 °C 1015.1 hPa WNW 12.9 km/h 30.6 km/h 77.4% 0 mm 0 W/m2
23:14 13.5 °C 9.5 °C 1015.1 hPa WNW 16.4 km/h 27.4 km/h 77% 0 mm 0 W/m2
23:19 13.5 °C 9.5 °C 1015.5 hPa WNW 13.2 km/h 24.1 km/h 77% 0 mm 0 W/m2
23:24 13.4 °C 9.4 °C 1015.5 hPa West 14.2 km/h 22.5 km/h 77% 0 mm 0 W/m2
23:29 13.5 °C 9.6 °C 1015.5 hPa WNW 11.9 km/h 25.7 km/h 77.6% 0 mm 0 W/m2
23:34 13.5 °C 9.5 °C 1015.5 hPa WNW 8.7 km/h 25.7 km/h 77% 0 mm 0 W/m2
23:39 13.5 °C 9.6 °C 1015.5 hPa West 16.1 km/h 29 km/h 77.6% 0 mm 0 W/m2
23:44 13.5 °C 9.7 °C 1015.5 hPa West 15.1 km/h 24.1 km/h 78% 0 mm 0 W/m2
23:49 13.4 °C 9.6 °C 1015.5 hPa WNW 12.9 km/h 22.5 km/h 78% 0 mm 0 W/m2
23:54 13.4 °C 9.6 °C 1015.5 hPa West 13.7 km/h 25.7 km/h 78% 0 mm 0 W/m2
23:59 13.3 °C 9.6 °C 1015.5 hPa West 15.1 km/h 29 km/h 78% 0 mm 0 W/m2
Bath Spa Weather
Compliments of Weather Underground - 2 mb